Location: Athabasca
(54.7194°N, 113.2858°W)
Time: 09:59:25
(UTC+00:00)

PRISM - Pass Details

Date: 05 December 2023
Orbit: 515 x 532 km, 98.2° (Epoch: 04 March)

Event Time Altitude Azimuth Distance (km) Brightness Sun altitude
Exits shadow 01:35:31 17° 6° (N) 1,445 ? -19.8°
Drops below altitude 10° 01:36:32 10° 358° (N) 1,819 ? -19.9°
Sets 01:38:45 0° 350° (N) 2,711 ? -20.2°
